Simultaneous Nadir Overpasses (SNOs) Predictions

Prediction of SNOs between AQUA and METOP-B Satellite Orbit:

Table of predicted SNOs for the next 14.0 days since TLE Epoch: 4/27/2018
Index Date (AQUA) Time (AQUA) Lat,Lon (AQUA) SZA (AQUA ) Date (METOP-B) Time (METOP-B) Lat,Lon (METOP-B) SZA (METOP-B ) Distance(km) Time Diff (sec)
1 04/29/2018 20:09:39 -73.93, 51.80 120.74 04/29/2018 20:09:07 -73.92, 51.87 120.74 1.97 32
2 04/29/2018 20:59:08 73.99,-140.70 59.32 04/29/2018 20:59:45 74.00,-140.62 59.32 2.44 37
3 05/02/2018 15:43:51 -73.91, 118.28 121.61 05/02/2018 15:43:28 -73.92, 118.27 121.59 1.21 23
4 05/02/2018 16:33:20 73.97, -74.22 58.45 05/02/2018 16:34:06 73.99, -74.23 58.47 1.82 46
5 05/05/2018 10:28:25 73.29, 18.42 56.93 05/05/2018 10:27:19 73.26, 15.82 56.99 83.45 66
6 05/05/2018 11:18:02 -73.91,-175.25 122.43 05/05/2018 11:17:48 -73.92,-175.33 122.41 2.91 14
7 05/05/2018 12:07:31 73.97, -7.76 57.63 05/05/2018 12:08:26 73.98, -7.84 57.64 3.13 55
8 05/08/2018 06:02:44 73.66, 84.10 56.53 05/08/2018 06:01:33 73.60, 83.00 56.52 35.12 71
9 05/08/2018 06:52:15 -73.96,-108.92 123.16 05/08/2018 06:52:08 -73.97,-108.81 123.15 3.47 7
10 05/08/2018 07:41:44 74.02, 58.57 56.90 05/08/2018 07:42:46 74.02, 58.67 56.90 2.88 62
11 05/11/2018 01:37:00 73.87, 150.07 56.02 05/11/2018 01:35:48 73.89, 150.08 56.04 1.90 72
12 05/11/2018 02:26:27 -73.96, -42.48 123.90 05/11/2018 02:26:29 -73.96, -42.42 123.90 1.90 2




NCC Satellite Simultaneous Nadir Overpasses (SNOs) Prediction Service
